Location: Ago
(8.4667°N, 4.4833°E)
Time: 23:50:58
(UTC+00:00)

Tsikada Rocket - Pass Details

Date: 18 September 2020
Orbit: 957 x 1010 km, 82.9° (Epoch: 20 October)

Event Time Altitude Azimuth Distance (km) Brightness Sun altitude
Rises 18:05:26 0° 6° (N) 3,627 7.0 -7.1°
Reaches altitude 10° 18:08:00 10° 11° (N) 2,684 6.2 -7.7°
Maximum altitude 18:13:56 51° 86° (E) 1,196 4.1 -9.2°
Drops below altitude 10° 18:19:55 10° 161° (SSE) 2,711 6.1 -10.6°
Sets 18:22:30 0° 166° (SSE) 3,666 6.8 -11.3°
